{"data":{"norad_id":59564,"intl_designator":"2024-076A","name":"STARLINK-31747","alt_names":[],"object_type":"PAYLOAD","status":"ACTIVE","operator":null,"country":"US","launch_date":"2024-04-23","launch_site_code":"AFETR","launch_vehicle":null,"mission":null,"orbit_class":"UNKNOWN","rcs_meters":null,"size_class":null,"mass_kg":null,"dimensions":null,"purposes":["comms"],"wikipedia_slug":null,"has_3d_model":false,"image_url":null,"decayed_at":null,"tle_current":{"epoch":"2026-05-25T02:48:44.411616Z","epoch_age_seconds":61398,"freshness":"FRESH","line1":"1 59564U 24076A   26145.11718069  .00000246  00000+0  18453-4 0  9995","line2":"2 59564  43.0017 286.8005 0000903 290.4981  69.5774 15.27574832118305","mean_motion":15.27574832,"eccentricity":9.03e-5,"inclination_deg":43.0017,"raan_deg":286.8005,"arg_perigee_deg":290.4981,"mean_anomaly_deg":69.5774,"bstar":1.8453e-5,"rev_number":11830,"period_min":94.26706763129,"perigee_km":482.4450044326,"apogee_km":483.68413743631,"semimajor_km":6861.2015709345,"source":"CELESTRAK","updated_at":"2026-05-25T13:38:18.984141Z"}}}